Flag for Afghanistan Weather past 2 weeks in Jalalabad, Afghanistan

Now
86 °F

Warm.


Feels Like: 95 °F
Forecast: 75 / 103 °F
Wind: N/A

Location: Peshawar Airport

Current Time: Aug 21, 2014 at 2:57:22 AM

Latest Report: Aug 21, 2014 at 2:30 AM


Visibility: N/A

Pressure: 29.56 "Hg

Humidity: 70%

Dew point: 75 °F

Location of JalalabadLocation

Historic Weather in Jalalabad — Graph

°F

Jalalabad temperature yesterday

Maximum temperature yesterday: 99 °F (at 2:30 PM)
Minimum temperature yesterday: 81 °F (at 3:30 AM)
Average temperature yesterday: 90 °F

Past Weeks' High & Low Weather Summary

 TemperatureHumidityPressure
High102 °F (Aug 6, 3:30 PM)100% (Aug 8, 11:30 AM)29.80 "Hg (Aug 8, 11:30 AM)
Low37 °F (Aug 8, 11:30 AM)35% (Aug 18, 2:30 PM)29.36 "Hg (Aug 14, 3:30 PM)
Average88 °F64%29.57 "Hg
* Reported Aug 6 1:30 AM — Aug 21 1:30 AM, Jalalabad, Weather by CustomWeather, © 2014

Note: Actual official high and low records may vary slightly from our data, if they occured in-between our weather recording intervals... More about our weather records

Advertising

Jalalabad weather history for previous 24 hours

 ConditionsComfort  
Time TempWeatherWind HumidityBarometerVisibility
1:30 AM
Aug 21
86 °FWarm.N/A70%29.56 "HgN/A
12:30 AM86 °FWarm.N/A70%29.56 "HgN/A
11:30 PM
Aug 20
88 °FWarm.N/A70%29.59 "HgN/A
10:30 PM88 °FWarm.N/A70%29.59 "HgN/A
9:30 PM90 °FHot.N/A71%29.59 "HgN/A
8:30 PM91 °FHot.N/A67%29.59 "HgN/A
7:30 PM93 °FExtremely hot.N/A63%29.59 "HgN/A
6:30 PM93 °FExtremely hot.N/A63%29.59 "HgN/A
5:30 PM95 °FHaze.12 mph56%29.59 "Hg2 mi
4:30 PM97 °FExtremely hot.N/A53%29.59 "HgN/A
3:30 PM99 °FExtremely hot.N/A50%29.59 "HgN/A
2:30 PM99 °FExtremely hot.N/A50%29.62 "HgN/A
1:30 PM97 °FExtremely hot.N/A53%29.62 "HgN/A
12:30 PM97 °FExtremely hot.N/A53%29.65 "HgN/A
11:30 AM95 °FExtremely hot.N/A56%29.68 "HgN/A
10:30 AM93 °FExtremely hot.N/A56%29.68 "HgN/A
9:30 AM90 °FHot.N/A59%29.71 "HgN/A
8:30 AM88 °FWarm.N/A62%29.71 "HgN/A
7:30 AM86 °FWarm.N/A66%29.68 "HgN/A
6:30 AM82 °FWarm.N/A66%29.68 "HgN/A
5:30 AM81 °FSunny.No wind70%29.65 "Hg2 mi
4:30 AM81 °FClear.No wind70%29.65 "Hg2 mi
3:30 AM81 °FClear.No wind70%29.62 "Hg2 mi
2:30 AM82 °FClear.No wind66%29.62 "Hg2 mi
Weather by CustomWeather, © 2014

See weather overviewHow to use our weather pages